Skip Page Navigation
NASA JPL Caltech
NASA Logo - Jet Propulsion Laboratory + View the NASA Portal
+ Near-Earth Object (NEO) Program
Search JPL
JPL Home Earth Solar System Stars & Galaxies Technology
JPL Solar System Dynamics
BODIES ORBITS EPHEMERIDES TOOLS PHYSICAL DATA DISCOVERY FAQ SITE MAP
JPL Small-Body Database Browser
Search: [ help ]  
157301 Loreena (2004 SE20)
Classification: Main-belt Asteroid          SPK-ID: 2157301
Ephemeris | Orbit Diagram | Orbital Elements | Physical Parameters | Discovery Circumstances ]

[ show orbit diagram ]
Orbital Elements at Epoch 2457000.5 (2014-Dec-09.0) TDB
Reference: JPL 6 (heliocentric ecliptic J2000)
 Element Value Uncertainty (1-sigma)   Units 
e .1111979636504884 1.8093e-07  
a 2.687627167579048 2.9443e-08 AU
q 2.388768499492528 4.7556e-07 AU
i 3.425714583983185 1.1102e-05 deg
node 16.95238227523066 0.00014262 deg
peri 329.7528966538479 0.00014806 deg
M 125.4029565061961 4.3361e-05 deg
tp 2456439.894653453818
(2013-May-27.39465345)
0.00019042 JED
period 1609.355396231458
4.41
2.6446e-05
7.241e-08
d
yr
n .2236920451772138 3.6758e-09 deg/d
Q 2.986485835665568 3.2717e-08 AU
  Orbit Determination Parameters
   # obs. used (total)      186  
   data-arc span      19849 days (54.34 yr)  
   first obs. used      1960-09-24  
   last obs. used      2015-01-28  
   planetary ephem.      DE431  
   SB-pert. ephem.      SB431-BIG16  
   condition code      0  
   fit RMS      .53933  
   data source      ORB  
   producer      Otto Matic  
   solution date      2015-Feb-04 18:17:27  

Additional Information
 Earth MOID = 1.38301 AU 
 T_jup = 3.362 
[ show covariance matrix ]

Ephemeris | Orbit Diagram | Orbital Elements | Physical Parameters | Discovery Circumstances ]

Physical Parameter Table
Parameter Symbol Value Units Sigma Reference Notes
absolute magnitude H 16.4 mag n/a MPO273298  

157301 Loreena           Discovered 2004 Sept. 16 by A. Knöfel at Drebach.
Loreena McKennitt (b. 1957) is a Canadian singer, composer and instrumentalist. She writes and performs world music with Celtic and Middle Eastern themes.
NOTE: some special characters may not display properly (any characters within {} are an attempt to place the proper accent above a character)
Reference: 20120207/MPCPages.arcLast Updated: 2012-02-09
Ephemeris | Orbit Diagram | Orbital Elements | Physical Parameters | Discovery Circumstances ]
ABOUT SSD CREDITS/AWARDS PRIVACY/COPYRIGHT GLOSSARY LINKS
FirstGov 2015-Mar-06 17:34 UT
(server date/time)  
NASA Home Page
Site Manager:   Ryan S. Park
Webmaster  Alan B. Chamberlin